THOR ABLESTAR DEB, 261

Orbit data source: Space-Track

THOR ABLESTAR DEB, 261 is space debris in LEO originally from a launch on Thu, 29 Jun 1961 UTC launched from the Air Force Eastern Test Range (AFETR). Debris objects in space refer to the collection of defunct objects orbiting the Earth. Examples of debris include non-operational satellites, rocket bodies, and fragments generated from explosions, collisions, or faulty payload assembly.

Loading next visibility...
Identifier
261, 1961-015CH
Orbit
LEO
Country
Flag of USUS
Related business
Manufacturer
Unknown
Mission
Spacecraft
Bus & Motor
Unknown
Mass
Unknown
Launch date (UTC)
1961-06-29 (64 years ago)
Launch vehicle
Unknown
Launch site
Air Force Eastern Test Range (AFETR)
Object type
Payload
Rocket body
Debris
Shape & HBR
Unknown shape, 0.1 m
Radar Cross Section
Small (<0.1 m²)

Expand to show TLE details & history
Last TLE update: 12 hours ago

TLE from 12 hours ago
0 THOR ABLESTAR DEB
1 00261U 61015CH  25308.85273333  .00000137  00000-0  14057-3 0  9995
2 00261  66.6806 252.2393 0082755 131.7058 229.1144 14.00940264280666
Epoch: 2025-11-04T20:27Z
TLE epoch observation values (Epoch: 2025-11-04T20:27:56.159Z)
Latitude
-0.00002°
Longitude
-99.07851°
Altitude
932.278 km
Speed
7.366 km/s
True Right ascension
16h 48m 57s
True Declination
0° 00' 00"
Sunlit
Object was in daylight at epoch
Visualization orbit readout
Latitude
Unknown
Longitude
Unknown
Altitude
Unknown
Speed
Unknown
Apparent Right ascension
Unknown
Apparent Declination
Unknown
Sunlit
N/A
Visualization observer readout
Local Sidereal Time
04:45:10
Azimuth
Unknown
Elevation
Unknown
Doppler factor
Unknown
Orbital elements
Apogee altitude
949.079 km
Perigee altitude
828.802 km
Semi-major axis
7,267.077 km
Eccentricity
0.00828
Inclination
66.6806°
RAAN
252.2393°
Arg. of periapsis
131.7058°
True anomaly
228.40231°
Mean anomaly
229.1144°
Eccentric anomaly
228.75787°
Mean motion
3.50351 °/min
Orbital period
102.75 mins
BSTAR
0.00014057
Loading maneuver chart data...
Computing Atmospheric mass density...

Documentation

Showing up to 5 results
|